Tracking 19709 objects as of 17-Jun-2019
HD Live streaming from Space Station
objects crossing your sky now

INSAT 4A

Track INSAT 4A now!
INSAT 4A is classified as:


NORAD ID: 28911
Int'l Code: 2005-049A
Perigee: 35,792.7 km
Apogee: 35,794.3 km
Inclination: 0.1 °
Period: 1,436.1 minutes
Semi major axis: 42164 km
RCS: 12.5892 m2 (large)
Launch date: December 21, 2005
Source: India (IND)
Launch site: FRENCH GUIANA (FRGUI)
aabbcc
Your satellite tracking list
Your tracking list is empty




NASA's NSSDC Master Catalog

Two Line Element Set (TLE):
1 28911U 05049A   19168.46707981 -.00000172  00000-0  00000+0 0  9996
2 28911   0.0783 279.6452 0000190 139.3596  97.5985  1.00272529 49455
Source of the keplerian elements: AFSPC